Tracking 18980 objects as of 22-Feb-2018
HD Live streaming from Space Station
objects crossing your sky now

FENGYUN 1C DEB

Track FENGYUN 1C DEB now!
10-day predictions


NORAD ID: 31025
Int'l Code: 1999-025BDT
Perigee: 717.6 km
Apogee: 984.1 km
Inclination: 98.7 °
Period: 101.8 minutes
Semi major axis: 7221 km
RCS: 0.0116 m2 (small)
Launch date: May 10, 1999
Source: People's Republic of China (PRC)
Launch site: Taiyaun Space Center, China (TSC)

Note: This is SATELLITE DEBRIS
aabbcc
Your satellite tracking list
Your tracking list is empty




NASA's NSSDC Master Catalog

Two Line Element Set (TLE):
1 31025U 99025BDT 18052.30679184 +.00000146 +00000-0 +84756-4 0  9995
2 31025 098.7383 098.6333 0184547 284.6817 073.3964 14.14594280564339
Source of the keplerian elements: AFSPC